sat.trackr.live / text

‹ back to catalog

STARLINK-36229

NORAD 68114 · 2026-044P

PAYLOAD ACTIVE UNKNOWN

§ Identity

Operator
Country
US
Launch date
2026-03-08
Launch site
AFWTR
Launch vehicle
Mass (kg)
RCS (m²)

Purposes: comms

External: N2YO · Heavens-Above · Gunter

§ Orbital elements

Epoch: 2026-05-25T03:59:57.872256Z

Period
93.91 min
Inclination
97.2846°
Eccentricity
0.0000492
Mean motion
15.33455702 rev/d
Perigee alt
465.2 km
Apogee alt
465.8 km
Semi-major
6,843.6 km
B*
1.1785e-3
RAAN
105.7992°
Arg perigee
74.2447°
Mean anomaly
285.8850°
Rev number
1,330

§ Raw data

STARLINK-362291 68114U 26044P   26145.16664204  .00038175  00000+0  11785-2 0  99902 68114  97.2846 105.7992 0000492  74.2447 285.8850 15.33455702 13302

JSON: /api/v1/satellites/68114 · /tle

For live sub-satellite position, see the globe view (requires WebGL).

§ Visibility from observer

Set your observer location to see the next 7 days of passes ≥ 10°. The values pass through the URL so the page stays shareable.

No JS? Fill the form by hand. The geolocation button needs JavaScript.